CW4114 Weather Reports


Display with metric or nautical units.
time (UTC)temp
F
wind
direction
speed
MPH
gust
MPH
rain 1hr
in
rain 24hr
in
rain mn
in
humidity
%
barometer
mb
20180925204542 78 271 1.0 5.0 0.00 0.01 0.01 62 1007.9
20180925204042 78 290 3.0 11.0 0.00 0.01 0.01 61 1007.9
20180925203540 79 289 4.0 11.0 0.00 0.01 0.01 59 1008.1
20180925203041 79 283 4.0 13.0 0.00 0.01 0.01 61 1008.1
20180925202540 79 275 4.0 13.0 0.00 0.01 0.01 59 1008.3
20180925202042 80 269 9.0 12.0 0.00 0.01 0.01 57 1008.3
20180925201540 80 202 7.0 11.0 0.00 0.01 0.01 57 1008.3
20180925201041 79 234 3.0 12.0 0.00 0.01 0.01 60 1008.5
20180925200540 79 247 6.0 12.0 0.00 0.01 0.01 56 1008.4
20180925200040 80 261 6.0 13.0 0.00 0.01 0.01 57 1008.7
20180925195538 80 251 8.0 13.0 0.00 0.01 0.01 56 1008.7
20180925195037 80 240 5.0 15.0 0.00 0.01 0.01 58 1008.7
20180925194538 79 238 7.0 15.0 0.00 0.01 0.01 59 1008.7
20180925194038 80 185 5.0 12.0 0.00 0.01 0.01 57 1008.8
20180925193537 80 245 4.0 15.0 0.00 0.01 0.01 59 1008.9
20180925193037 80 206 7.0 15.0 0.00 0.01 0.01 59 1009.0
20180925192538 79 236 6.0 11.0 0.00 0.01 0.01 60 1009.0
20180925192037 78 238 3.0 10.0 0.00 0.01 0.01 62 1008.9
20180925191537 78 189 5.0 9.0 0.00 0.01 0.01 61 1009.0
20180925191051 78 216 4.0 12.0 0.00 0.01 0.01 59 1009.0
20180925190537 79 252 5.0 12.0 0.00 0.01 0.01 60 1009.0
20180925190037 80 200 4.0 11.0 0.00 0.01 0.01 60 1009.0
20180925185534 79 193 6.0 11.0 0.00 0.01 0.01 61 1009.1
20180925185036 77 274 4.0 11.0 0.00 0.01 0.01 63 1009.2
20180925184535 78 262 5.0 11.0 0.00 0.01 0.01 63 1009.2
20180925184035 78 265 6.0 11.0 0.00 0.01 0.01 63 1009.4
20180925183534 80 271 8.0 13.0 0.00 0.01 0.01 61 1009.2
20180925183034 79 221 7.0 12.0 0.00 0.01 0.01 62 1009.1
20180925182534 79 204 5.0 10.0 0.00 0.01 0.01 62 1009.1
20180925182031 79 213 4.0 12.0 0.00 0.01 0.01 61 1009.1
20180925181645 79 274 7.0 12.0 0.00 0.01 0.01 61 1009.2
20180925181031 79 265 5.0 11.0 0.00 0.01 0.01 64 1009.5
20180925180532 78 203 5.0 10.0 0.00 0.01 0.01 66 1009.5
20180925180031 78 168 4.0 13.0 0.00 0.01 0.01 67 1009.6
20180925175530 77 199 6.0 13.0 0.00 0.01 0.01 68 1009.7
20180925175028 75 168 2.0 9.0 0.00 0.01 0.01 73 1009.7
20180925174528 75 171 4.0 9.0 0.00 0.01 0.01 72 1009.7
20180925174028 76 207 3.0 9.0 0.00 0.01 0.01 70 1009.8
20180925173528 77 267 4.0 9.0 0.00 0.01 0.01 69 1009.8
20180925173028 77 176 4.0 9.0 0.00 0.01 0.01 71 1009.9
20180925172526 76 169 2.0 9.0 0.00 0.01 0.01 73 1009.9
20180925172026 75 193 3.0 9.0 0.00 0.01 0.01 74 1010.0
20180925171526 75 188 3.0 7.0 0.00 0.01 0.01 73 1010.1
20180925171023 76 237 3.0 10.0 0.00 0.01 0.01 71 1010.2
20180925170523 77 261 3.0 10.0 0.00 0.01 0.01 70 1010.2
20180925170022 76 240 4.0 10.0 0.00 0.01 0.01 71 1010.1
20180925165521 76 183 5.0 10.0 0.00 0.01 0.01 73 1010.0
20180925165022 75 271 1.0 6.0 0.00 0.01 0.01 72 1010.1
20180925164522 75 216 2.0 6.0 0.00 0.01 0.01 72 1010.1
20180925164020 75 240 3.0 9.0 0.00 0.01 0.01 73 1010.2
20180925163520 74 281 3.0 10.0 0.00 0.01 0.01 75 1010.3
20180925163019 74 238 5.0 10.0 0.00 0.01 0.01 73 1010.2
20180925162518 76 197 2.0 7.0 0.00 0.01 0.01 72 1010.4
20180925162021 75 138 2.0 9.0 0.00 0.01 0.01 72 1010.3
20180925161518 75 261 5.0 9.0 0.00 0.01 0.01 74 1010.5
20180925161017 74 262 4.0 9.0 0.00 0.01 0.01 75 1010.5
20180925160517 74 272 4.0 7.0 0.00 0.01 0.01 76 1010.7
20180925160019 74 255 4.0 6.0 0.00 0.01 0.01 76 1010.7
20180925155514 74 224 3.0 6.0 0.00 0.01 0.01 76 1010.7
20180925155014 73 258 3.0 7.0 0.00 0.01 0.01 80 1010.7
20180925154514 72 265 4.0 9.0 0.00 0.01 0.01 81 1010.8
20180925154011 72 207 3.0 9.0 0.00 0.01 0.01 82 1010.8
20180925153512 72 231 2.0 5.0 0.00 0.01 0.01 81 1010.7
20180925153011 72 243 3.0 7.0 0.00 0.01 0.01 81 1010.8
20180925152511 72 214 3.0 11.0 0.00 0.01 0.01 81 1010.7
20180925152009 72 254 4.0 11.0 0.00 0.01 0.01 80 1010.7
20180925151509 72 243 3.0 9.0 0.00 0.01 0.01 82 1010.7
20180925151008 73 272 4.0 11.0 0.00 0.01 0.01 80 1010.8
20180925150508 73 274 4.0 11.0 0.00 0.01 0.01 82 1010.8
20180925150008 73 237 4.0 13.0 0.00 0.01 0.01 82 1010.8
20180925145506 72 265 7.0 13.0 0.00 0.01 0.01 83 1010.9
20180925145006 72 238 5.0 10.0 0.00 0.01 0.01 85 1010.9
20180925144505 71 221 3.0 7.0 0.00 0.01 0.01 87 1010.9
20180925144004 71 254 3.0 7.0 0.00 0.01 0.01 90 1011.0
20180925143503 69 227 4.0 7.0 0.00 0.01 0.01 90 1011.0
20180925143005 69 202 4.0 7.0 0.00 0.01 0.01 91 1011.1
20180925142505 69 265 2.0 9.0 0.00 0.01 0.01 92 1011.1
20180925142003 68 223 2.0 10.0 0.00 0.01 0.01 92 1011.3
20180925141503 69 275 3.0 10.0 0.00 0.01 0.01 92 1011.3
20180925141003 69 212 3.0 7.0 0.00 0.01 0.01 91 1011.3
20180925140503 69 206 5.0 9.0 0.00 0.01 0.01 90 1011.3
20180925140004 69 267 4.0 9.0 0.00 0.01 0.01 90 1011.2
20180925135506 69 264 4.0 7.0 0.00 0.01 0.01 90 1011.3
20180925135002 69 244 4.0 11.0 0.00 0.01 0.01 90 1011.3
20180925134459 69 237 4.0 11.0 0.00 0.01 0.01 92 1011.2
20180925134004 68 236 4.0 10.0 0.00 0.01 0.01 93 1011.1
20180925133503 68 224 5.0 10.0 0.00 0.01 0.01 93 1011.1
20180925132957 68 197 2.0 9.0 0.00 0.01 0.01 94 1011.1
20180925132500 67 196 4.0 9.0 0.00 0.01 0.01 95 1011.2
20180925131959 67 223 4.0 10.0 0.00 0.01 0.01 95 1011.2
20180925131457 67 237 3.0 10.0 0.00 0.01 0.01 95 1011.2
20180925130957 67 236 4.0 7.0 0.00 0.01 0.01 95 1011.3
20180925130457 66 203 4.0 7.0 0.00 0.01 0.01 96 1011.4
20180925125957 66 200 4.0 9.0 0.00 0.01 0.01 96 1011.4
20180925125457 66 245 5.0 9.0 0.00 0.01 0.01 96 1011.5
20180925124956 66 247 3.0 7.0 0.00 0.01 0.01 96 1011.4
20180925124455 66 219 2.0 6.0 0.00 0.01 0.01 96 1011.3
20180925123956 66 206 3.0 6.0 0.00 0.01 0.01 96 1011.3
20180925123455 66 237 2.0 6.0 0.00 0.01 0.01 96 1011.3
20180925122956 66 293 3.0 6.0 0.00 0.01 0.01 96 1011.4
20180925122455 65 278 2.0 6.0 0.00 0.01 0.01 96 1011.4
20180925121955 65 240 2.0 6.0 0.00 0.01 0.01 97 1011.4
20180925121455 65 224 3.0 6.0 0.00 0.01 0.01 97 1011.3
20180925120955 65 203 3.0 6.0 0.00 0.01 0.01 97 1011.4
20180925120455 65 248 3.0 12.0 0.00 0.01 0.01 97 1011.3
20180925115954 65 183 5.0 9.0 0.00 0.01 0.01 97 1011.3
20180925115454 65 224 3.0 7.0 0.00 0.01 0.01 97 1011.3
20180925114954 65 199 4.0 7.0 0.00 0.01 0.01 97 1011.3
20180925114454 65 234 2.0 7.0 0.00 0.01 0.01 97 1011.4
20180925113954 65 221 2.0 6.0 0.00 0.01 0.01 97 1011.4
20180925113454 65 212 2.0 9.0 0.00 0.01 0.01 97 1011.3
20180925112954 65 181 4.0 11.0 0.00 0.01 0.01 97 1011.2
20180925112454 65 210 4.0 9.0 0.00 0.01 0.01 97 1011.2
20180925111955 65 204 2.0 7.0 0.00 0.01 0.01 97 1011.3
20180925111453 65 200 4.0 7.0 0.00 0.01 0.01 97 1011.3
20180925110953 65 265 3.0 12.0 0.00 0.01 0.01 97 1011.3
20180925110453 65 217 5.0 10.0 0.00 0.01 0.01 97 1011.2
20180925105952 65 276 3.0 9.0 0.00 0.01 0.01 97 1011.3
20180925105452 65 224 3.0 11.0 0.00 0.01 0.01 97 1011.3
20180925104952 65 238 3.0 11.0 0.00 0.01 0.01 97 1011.2
20180925104452 65 228 3.0 11.0 0.00 0.01 0.01 97 1011.2
20180925103952 65 221 3.0 7.0 0.00 0.01 0.01 97 1011.1
20180925103452 65 257 3.0 9.0 0.00 0.01 0.01 97 1011.1
20180925102952 65 216 4.0 11.0 0.00 0.01 0.01 97 1011.1
20180925102451 64 241 3.0 11.0 0.00 0.01 0.01 97 1011.1
20180925101951 64 281 3.0 9.0 0.00 0.01 0.01 97 1011.1
20180925101452 64 219 3.0 9.0 0.00 0.01 0.01 97 1011.2
20180925100951 65 237 3.0 7.0 0.00 0.01 0.01 97 1011.1
20180925100453 65 243 3.0 7.0 0.00 0.01 0.01 97 1011.2
20180925095951 65 228 4.0 7.0 0.00 0.01 0.01 97 1011.2
20180925095451 65 195 3.0 7.0 0.00 0.01 0.01 97 1011.2
20180925094953 65 230 4.0 10.0 0.00 0.01 0.01 97 1011.3
20180925094450 64 228 4.0 10.0 0.00 0.01 0.01 97 1011.3
20180925093951 64 196 4.0 10.0 0.00 0.01 0.01 97 1011.2
20180925093453 64 236 4.0 13.0 0.00 0.01 0.01 97 1011.3
20180925092952 64 219 4.0 13.0 0.00 0.01 0.01 97 1011.2
20180925092453 64 144 4.0 9.0 0.00 0.01 0.01 97 1011.1
20180925091950 65 182 4.0 9.0 0.00 0.01 0.01 97 1011.2
20180925091501 65 227 4.0 9.0 0.00 0.01 0.01 97 1011.2
20180925090949 65 234 4.0 9.0 0.00 0.01 0.01 97 1011.3
20180925090449 65 185 4.0 9.0 0.00 0.01 0.01 97 1011.2
20180925085949 65 231 4.0 9.0 0.00 0.01 0.01 97 1011.3
20180925085450 65 217 4.0 11.0 0.00 0.01 0.01 97 1011.3
20180925084948 65 200 5.0 11.0 0.00 0.01 0.01 97 1011.3
20180925084448 65 257 3.0 10.0 0.00 0.01 0.01 97 1011.3
20180925083947 65 206 4.0 10.0 0.00 0.01 0.01 97 1011.4
20180925083448 65 244 3.0 10.0 0.00 0.01 0.01 97 1011.4
20180925082949 64 274 2.0 9.0 0.00 0.01 0.01 97 1011.4
20180925082448 64 192 4.0 12.0 0.00 0.01 0.01 97 1011.4
20180925081948 64 212 5.0 12.0 0.00 0.01 0.01 97 1011.4
20180925080948 64 190 5.0 10.0 0.00 0.01 0.01 97 1011.4
20180925080447 64 186 4.0 11.0 0.00 0.01 0.01 97 1011.5
20180925075946 64 189 6.0 11.0 0.00 0.01 0.01 97 1011.6
20180925075447 64 221 4.0 9.0 0.00 0.01 0.01 97 1011.6
20180925074945 64 195 4.0 13.0 0.00 0.01 0.01 97 1011.7
20180925074445 64 226 4.0 13.0 0.00 0.01 0.01 97 1011.7
20180925073945 64 182 4.0 10.0 0.01 0.01 0.01 97 1011.8
20180925073447 64 213 2.0 10.0 0.01 0.01 0.01 97 1011.9
20180925072947 64 200 3.0 12.0 0.01 0.01 0.01 96 1012.0
20180925072445 64 244 3.0 12.0 0.01 0.01 0.01 96 1011.9
20180925071945 64 179 4.0 12.0 0.01 0.01 0.01 96 1012.0
20180925071445 64 196 6.0 12.0 0.01 0.01 0.01 96 1012.1
20180925070946 64 175 4.0 13.0 0.01 0.01 0.01 96 1012.2
20180925070446 64 203 5.0 13.0 0.01 0.01 0.01 96 1012.2
20180925065946 64 173 6.0 11.0 0.01 0.01 0.01 96 1012.3
20180925065443 64 172 4.0 12.0 0.01 0.01 0.01 96 1012.3
20180925064944 64 175 5.0 13.0 0.01 0.01 0.01 96 1012.4
20180925064444 64 172 7.0 13.0 0.01 0.01 0.01 96 1012.5
20180925063944 64 203 4.0 12.0 0.00 0.00 0.00 96 1012.6
20180925063443 64 171 3.0 12.0 0.00 0.00 0.00 96 1012.6
20180925062944 64 203 5.0 11.0 0.00 0.00 0.00 96 1012.7
20180925062445 64 176 3.0 11.0 0.00 0.00 0.00 96 1012.7
20180925061944 64 193 3.0 10.0 0.00 0.00 0.00 96 1012.8
20180925061444 64 203 3.0 13.0 0.00 0.00 0.00 96 1012.9
20180925060943 64 221 3.0 13.0 0.00 0.00 0.00 96 1013.0
20180925060443 64 199 3.0 12.0 0.00 0.00 0.00 97 1013.0
20180925055943 64 183 5.0 10.0 0.00 0.00 0.00 97 1013.1
20180925055444 64 214 4.0 11.0 0.00 0.00 0.00 97 1013.2
20180925054943 64 186 6.0 11.0 0.00 0.00 0.00 97 1013.3
20180925054443 64 175 4.0 12.0 0.00 0.00 0.00 97 1013.4
20180925053943 64 178 6.0 12.0 0.00 0.00 0.00 97 1013.5
20180925053443 64 182 5.0 10.0 0.00 0.00 0.00 96 1013.6
20180925052942 64 212 3.0 9.0 0.00 0.00 0.00 96 1013.7
20180925052444 64 185 4.0 10.0 0.00 0.00 0.00 96 1013.8
20180925051942 64 172 6.0 11.0 0.00 0.00 0.00 96 1013.8
20180925051442 64 127 4.0 15.0 0.00 0.00 0.00 96 1013.8
20180925050943 64 196 4.0 10.0 0.00 0.00 0.00 96 1014.0
20180925050443 64 207 5.0 13.0 0.00 0.00 0.00 96 1013.9
20180925045942 64 172 4.0 11.0 0.00 0.00 0.00 96 1014.0
20180925045440 64 182 3.0 11.0 0.00 0.00 0.00 96 1014.1
20180925044941 64 195 3.0 12.0 0.00 0.00 0.00 96 1014.2
20180925044441 64 181 4.0 12.0 0.00 0.00 0.00 96 1014.2
20180925043941 64 206 5.0 9.0 0.00 0.00 0.00 96 1014.3
20180925043441 64 192 4.0 11.0 0.00 0.00 0.00 96 1014.3
20180925042942 64 182 4.0 11.0 0.00 0.00 0.00 96 1014.4
20180925042441 64 193 6.0 13.0 0.00 0.00 0.00 96 1014.4
20180925041941 63 236 5.0 15.0 0.00 0.00 0.00 96 1014.4
20180925041442 63 195 4.0 15.0 0.00 0.00 0.00 97 1014.5
20180925040939 63 144 6.0 15.0 0.00 0.00 0.00 97 1014.4
20180925040439 63 195 6.0 11.0 0.00 0.00 0.00 97 1014.6
20180925035941 63 185 5.0 11.0 0.00 0.00 0.00 96 1014.7
20180925035439 63 185 4.0 12.0 0.00 0.00 0.00 97 1014.7
20180925034940 63 173 6.0 9.0 0.00 0.00 0.00 97 1014.7
20180925034441 63 219 4.0 12.0 0.00 0.00 0.00 97 1014.8
20180925033939 63 176 4.0 12.0 0.00 0.00 0.00 97 1014.9
20180925033439 62 182 5.0 12.0 0.00 0.00 0.00 97 1014.8
20180925032940 62 179 4.0 9.0 0.00 0.00 0.00 97 1014.9
20180925032439 62 152 4.0 9.0 0.00 0.00 0.00 96 1014.9
20180925031939 62 207 5.0 10.0 0.00 0.00 0.00 96 1015.1
20180925031441 62 182 4.0 12.0 0.00 0.00 0.00 96 1015.1
20180925030938 62 172 5.0 12.0 0.00 0.00 0.00 96 1015.2
20180925030438 62 151 4.0 10.0 0.00 0.00 0.00 96 1015.2
20180925025937 62 142 6.0 10.0 0.00 0.00 0.00 96 1015.4
20180925025438 62 190 5.0 11.0 0.00 0.00 0.00 96 1015.4
20180925024938 62 197 4.0 11.0 0.00 0.00 0.00 96 1015.5
20180925024438 62 168 6.0 13.0 0.00 0.00 0.00 95 1015.6
20180925023937 62 192 5.0 13.0 0.00 0.00 0.00 95 1015.7
20180925023439 62 172 3.0 13.0 0.00 0.00 0.00 95 1015.7
20180925022937 62 183 4.0 13.0 0.00 0.00 0.00 95 1015.9
20180925022437 62 151 3.0 12.0 0.00 0.00 0.00 94 1016.0
20180925021937 62 182 4.0 12.0 0.00 0.00 0.00 94 1016.0
20180925021438 62 178 4.0 12.0 0.00 0.00 0.00 93 1016.1
20180925020937 62 147 6.0 11.0 0.00 0.00 0.00 93 1016.2
20180925020437 62 188 5.0 12.0 0.00 0.00 0.00 93 1016.2
20180925015939 62 166 4.0 13.0 0.00 0.00 0.00 93 1016.1
20180925015439 62 127 3.0 14.0 0.00 0.00 0.00 93 1016.2
20180925014938 62 171 5.0 9.0 0.00 0.00 0.00 93 1016.2
20180925014435 62 135 4.0 12.0 0.00 0.00 0.00 93 1016.3
20180925013934 62 172 6.0 12.0 0.00 0.00 0.00 93 1016.3
20180925013436 62 142 5.0 10.0 0.00 0.00 0.00 93 1016.3
20180925012934 62 155 3.0 10.0 0.00 0.00 0.00 93 1016.4
20180925012435 62 155 3.0 12.0 0.00 0.00 0.00 93 1016.5
20180925011935 62 189 6.0 12.0 0.00 0.00 0.00 93 1016.4
20180925011435 62 141 4.0 13.0 0.00 0.00 0.00 93 1016.5
20180925010934 62 162 5.0 13.0 0.00 0.00 0.00 93 1016.6
20180925010434 62 186 4.0 13.0 0.00 0.00 0.00 93 1016.6
20180925005934 62 149 3.0 14.0 0.00 0.00 0.00 93 1016.6
20180925005435 61 203 4.0 14.0 0.00 0.00 0.00 93 1016.7
20180925004934 61 130 5.0 11.0 0.00 0.00 0.00 93 1016.7
20180925004434 61 161 4.0 11.0 0.00 0.00 0.00 93 1016.7
20180925003935 61 120 3.0 11.0 0.00 0.00 0.00 93 1016.8
20180925003433 61 195 4.0 9.0 0.00 0.00 0.00 92 1016.8
20180925002934 61 165 4.0 9.0 0.00 0.00 0.00 92 1016.8
20180925002433 60 113 2.0 7.0 0.00 0.00 0.00 92 1016.9
20180925001933 60 140 2.0 11.0 0.00 0.00 0.00 92 1016.9
20180925001433 60 193 3.0 11.0 0.00 0.00 0.00 92 1017.0
20180925000933 60 158 4.0 11.0 0.00 0.00 0.00 91 1017.0
20180925000433 60 157 5.0 10.0 0.00 0.00 0.00 91 1017.1
20180924235931 60 169 3.0 12.0 0.00 0.00 0.00 91 1017.3
20180924235433 60 133 6.0 10.0 0.00 0.00 0.00 90 1017.3
20180924234933 60 134 5.0 10.0 0.00 0.00 0.00 90 1017.5
20180924234432 60 100 2.0 9.0 0.00 0.00 0.00 90 1017.6
20180924233934 60 138 3.0 10.0 0.00 0.00 0.00 89 1017.8
20180924233431 60 147 3.0 10.0 0.00 0.00 0.00 89 1017.9
20180924232930 60 142 3.0 9.0 0.00 0.00 0.00 89 1017.9
20180924232431 60 168 4.0 13.0 0.00 0.00 0.00 89 1017.8
20180924231931 60 86 4.0 13.0 0.00 0.00 0.00 89 1017.9
20180924231431 60 189 4.0 11.0 0.00 0.00 0.00 89 1017.9
20180924230930 60 135 3.0 10.0 0.00 0.00 0.00 88 1018.1
20180924230431 60 168 4.0 10.0 0.00 0.00 0.00 88 1018.0
20180924225931 60 114 4.0 11.0 0.00 0.00 0.00 88 1018.1
20180924225432 60 145 5.0 11.0 0.00 0.00 0.00 88 1018.1
20180924224931 60 149 4.0 10.0 0.00 0.00 0.00 88 1018.2
20180924224432 60 178 2.0 10.0 0.00 0.00 0.00 88 1018.2
20180924223930 60 126 5.0 9.0 0.00 0.00 0.00 88 1018.2
20180924223430 60 118 5.0 9.0 0.00 0.00 0.00 88 1018.3
20180924222928 60 140 3.0 11.0 0.00 0.00 0.00 88 1018.3
20180924222427 60 141 4.0 11.0 0.00 0.00 0.00 88 1018.2
20180924221928 60 134 5.0 10.0 0.00 0.00 0.00 88 1018.3
20180924221428 60 157 4.0 9.0 0.00 0.00 0.00 88 1018.4
20180924220928 60 113 2.0 11.0 0.00 0.00 0.00 88 1018.5
20180924220428 60 135 3.0 11.0 0.00 0.00 0.00 88 1018.6
20180924215926 60 145 4.0 10.0 0.00 0.00 0.00 88 1018.6
20180924215425 60 154 4.0 12.0 0.00 0.00 0.00 87 1018.7
20180924214924 60 128 4.0 13.0 0.00 0.00 0.00 87 1018.8
20180924214424 60 152 6.0 14.0 0.00 0.00 0.00 86 1018.9
20180924213924 60 95 4.0 14.0 0.00 0.00 0.00 86 1018.9
20180924213424 60 137 6.0 13.0 0.00 0.00 0.00 86 1018.9
20180924212922 60 110 7.0 15.0 0.00 0.00 0.00 86 1018.9
20180924212422 60 135 6.0 15.0 0.00 0.00 0.00 86 1019.0
20180924211921 60 178 6.0 12.0 0.00 0.00 0.00 86 1018.9
20180924211419 60 159 7.0 12.0 0.00 0.00 0.00 86 1019.0
20180924210922 60 120 6.0 15.0 0.00 0.00 0.00 86 1019.0
20180924210420 60 154 7.0 15.0 0.00 0.00 0.00 85 1019.0
20180924205920 61 161 6.0 13.0 0.00 0.00 0.00 85 1019.2
20180924205421 61 159 4.0 14.0 0.00 0.00 0.00 85 1019.2
20180924204918 61 109 6.0 14.0 0.00 0.00 0.00 85 1019.1